User: anonymous   Login
Location: Oshawa
(43.9000°N, 78.8670°W)
Time: 17:59:32
(UTC-04:00)
Language:

Cosmos 839 Rocket - Orbit

View from above orbital plane
View from above orbital plane
View from above satellite
View from above satellite

Ground track
Ground track

The orbit data is extracted from the following two-line orbital elements,

1  9013U 76067B   17229.52793144 +.00000026 +00000-0 +27161-3 0  9993
2  9013 065.8632 247.3874 0707872 048.5798 104.6635 12.35326036853981
Epoch (UTC): 17 August 2017 12:40:13
Eccentricity: 0.0707872
inclination: 65.8632°
perigee height: 967 km
apogee height: 2086 km
right ascension of ascending node: 247.3874°
argument of perigee: 48.5798°
revolutions per day: 12.35326036
mean anomaly at epoch: 104.6635°
orbit number at epoch: 85398

The dashed part of the orbit path shows where the satellite is in the earth's shadow,  

DLR